Long Point, Ontario

7:56 PM EDT on May 27, 2017 (GMT -0400)
Long Point

Weather History for CWPS - November, 2013

Change the Weather History Date:

Sunday, November 3, 2013

  Actual Average (KERI) Record (KERI)
Temperature  
Mean Temperature 37 °F 48 °F  
Max Temperature 40 °F 55 °F 80 °F (1961)
Min Temperature 34 °F 40 °F 24 °F (1951)
Degree Days  
Heating Degree Days 28 17  
Month to date heating degree days 51  
Since 1 July heating degree days 554  
Cooling Degree Days 0 0  
Month to date cooling degree days 0  
Year to date cooling degree days 638  
Moisture  
Dew Point 25 °F    
Average Humidity 62    
Maximum Humidity 79    
Minimum Humidity 39    
Precipitation  
Precipitation 0.00 in 0.13 in 0.99 in (1970)
Month to date precipitation 0.39  
Year to date precipitation 34.88  
Snow  
Snow - 0.20 in - ()
Month to date snowfall 0.4  
Since 1 July snowfall 0.6  
Since 1 September snowfall 0.6  
Snow Depth -    
Sea Level Pressure  
Sea Level Pressure 30.29 in    
Wind  
Wind Speed 14 mph ()    
Max Wind Speed 22 mph    
Max Gust Speed 21 mph    
T = Trace of Precipitation, MM = Missing Value Source: Averaged Metar Reports

Daily Weather History Graph

Daily Weather History Graph

Search for Another Location

Airport or City:

Trip Planner

Search our weather history database for the weather conditions in past years. The results will help you decide how hot, cold, wet, or windy it might be!

Date:

Astronomy

Nov. 03, 2013 Rise Set
Actual Time 6:56 AM EST 5:10 PM EST
Civil Twilight 6:27 AM EST 5:39 PM EST
Nautical Twilight 5:53 AM EST 6:13 PM EST
Astronomical Twilight 5:20 AM EST 6:45 PM EST
Moon 6:59 AM EST (11/3) 5:23 PM EST (11/3)
Length of Visible Light 11h 12m
Length of Day
10h 13m
New Moon, 0% of the Moon is Illuminated
Nov 3
New Moon
Nov 10
First Quarter
Nov 17
Full
Nov 25
Last Quarter
Dec 2
New

Hourly Weather History & Observations

Time (EST) Temp. Windchill Dew Point Humidity Pressure Visibility Wind Dir Wind Speed Gust Speed Precip Events Conditions
12:00 AM 40.1 °F 30.2 °F 31.5 °F 71% 30.02 in - NW 21.9 mph - N/A   Unknown
1:00 AM 39.7 °F 30.6 °F 30.2 °F 69% 30.04 in - NNW 18.4 mph - N/A   Unknown
1:00 AM 39 °F - 31 °F 63% 30.06 in - North 18.4 mph - -  
1:00 AM 39.2 °F 29.8 °F 30.7 °F 72% 30.06 in - North 18.4 mph - N/A   Unknown
2:00 AM 38.3 °F 29.7 °F 29.7 °F 71% 30.09 in - North 15.0 mph - N/A   Unknown
3:00 AM 36.9 °F 26.8 °F 30.7 °F 79% 30.12 in - NNW 18.4 mph - N/A   Unknown
4:00 AM 36.3 °F 26.1 °F 28.8 °F 74% 30.14 in - NNW 18.4 mph - N/A   Unknown
5:00 AM 36.1 °F 27.3 °F 27.9 °F 72% 30.18 in - NNW 13.8 mph - N/A   Unknown
6:00 AM 35.6 °F 26.6 °F 27.5 °F 72% 30.21 in - NNW 13.8 mph - N/A   Unknown
7:00 AM 35 °F - 28 °F 65% 30.24 in - North 15.0 mph - -  
7:00 AM 35.1 °F 25.5 °F 27.5 °F 74% 30.24 in - North 15.0 mph - N/A   Unknown
8:00 AM 34.9 °F 24.9 °F 27.3 °F 74% 30.29 in - NNW 16.1 mph - N/A   Unknown
9:00 AM 34.3 °F 23.9 °F 26.8 °F 74% 30.31 in - North 17.3 mph - N/A   Unknown
10:00 AM 35.1 °F 25.5 °F 26.1 °F 70% 30.34 in - NNW 15.0 mph 20.7 mph N/A   Unknown
11:00 AM 34.2 °F 25.2 °F 22.8 °F 63% 30.37 in - NNW 12.7 mph - N/A   Unknown
12:00 PM 34.7 °F 25.9 °F 24.1 °F 65% 30.37 in - NNW 12.7 mph - N/A   Unknown
1:00 PM 35 °F - 24 °F 52% 30.37 in - NNW 12.7 mph - -  
1:00 PM 35.2 °F 26.6 °F 23.7 °F 63% 30.37 in - NNW 12.7 mph - N/A   Unknown
2:00 PM 35.1 °F 26.9 °F 21.0 °F 57% 30.38 in - NNW 11.5 mph - N/A   Unknown
3:00 PM 35.2 °F 27.1 °F 21.2 °F 57% 30.40 in - North 11.5 mph - N/A   Unknown
4:00 PM 36.0 °F 30.3 °F 19.6 °F 51% 30.42 in - North 6.9 mph - N/A   Unknown
5:00 PM 36.3 °F 28.4 °F 19.8 °F 51% 30.42 in - North 11.5 mph - N/A   Unknown
6:00 PM 36.7 °F 28.4 °F 18.3 °F 47% 30.43 in - North 12.7 mph - N/A   Unknown
7:00 PM 37 °F - 21 °F 39% 30.45 in - North 13.8 mph - -  
7:00 PM 37.0 °F 28.5 °F 20.8 °F 52% 30.45 in - North 13.8 mph - N/A   Unknown
8:00 PM 37.0 °F 29.3 °F 19.6 °F 49% 30.47 in - NNE 11.5 mph - N/A   Unknown
9:00 PM 37.2 °F 27.6 °F 16.0 °F 42% 30.47 in - NNE 17.3 mph - N/A   Unknown
10:00 PM 37.9 °F 28.9 °F 16.5 °F 42% 30.49 in - NE 16.1 mph - N/A   Unknown